EHI
6 23 37 24 5 0 0 0 0 0 0 0 0 0 0 0 0 0 0 0 0 0 0 0 0 0 0 0 0 0 0 0 0 0 0 0 0 0 0 0 0 0 0
4 16 27 18 4 0 0 0 0 0 0 0 0 0 0 0 0 0 0 0 0 0 0 0 0 0 0 0 0 0 0 0 0 0 0 0 0 0 0 0 0 0 0
2 7 11 9 3 0 0 0 0 0 0 0 0 0 0 0 0 0 0 0 0 0 0 0 0 0 0 0 0 0 0 0 0 0 0 0 0 0 0 0 0 0 0
1 1 2 2 1 0 0 0 0 0 0 0 0 0 0 0 0 0 0 0 0 0 0 0 0 0 0 0 0 0 0 0 0 0 0 0 0 0 0 0 0 0 0
1 1 2 2 1 0 0 0 0 0 0 0 0 0 0 0 0 0 0 0 0 0 0 0 0 0 0 0 0 0 0 0 0 0 0 0 0 0 0 0 0 0 0
2 2 3 4 2 0 0 0 0 0 0 0 0 0 0 0 0 0 0 0 0 0 0 0 0 0 0 0 0 0 0 0 0 0 0 0 0 0 0 0 0 0 0
1 1 3 4 2 0 0 0 0 0 0 0 0 0 0 0 0 0 0 0 0 0 0 0 0 0 0 0 0 0 0 0 0 0 0 0 0 0 0 0 0 0 0
0 0 1 2 1 0 0 0 0 0 0 0 0 0 0 0 0 0 0 0 0 0 0 0 0 0 0 0 0 0 0 0 0 0 0 0 0 0 0 0 0 0 0
0 0 0 1 0 0 0 0 0 0 0 0 0 0 0 0 0 0 0 0 0 0 0 0 0 0 0 0 0 0 0 0 0 0 0 0 0 0 0 0 0 0 0
0 0 0 0 0 0 0 0 0 0 0 0 0 0 0 0 0 0 0 0 0 0 0 0 0 0 0 0 0 0 0 0 0 0 0 0 0 0 0 0 0 0 0
0 0 0 0 0 0 0 0 0 0 0 0 0 0 0 0 0 0 0 0 0 0 0 0 0 0 0 0 0 0 0 0 0 0 0 0 0 0 0 0 0 0 0
0 0 0 0 0 0 0 0 0 0 0 0 0 0 0 0 0 0 0 0 0 0 0 0 0 0 0 0 0 0 0 0 0 0 0 0 0 0 0 0 0 0 0
0 0 0 0 0 0 0 0 0 0 0 0 0 0 0 0 0 0 0 0 0 0 0 0 0 0 0 0 0 0 0 0 0 0 0 0 0 0 0 0 0 0 0
0 0 0 0 0 0 0 0 0 0 0 0 0 0 0 0 0 0 0 0 0 0 0 0 0 0 0 0 0 0 0 0 0 0 0 0 0 0 0 0 0 0 0
0 0 0 0 0 0 0 0 0 0 0 0 0 0 0 0 0 0 0 0 0 0 0 0 0 0 0 0 0 0 0 0 0 0 0 0 0 0 0 0 0 0 0
0 0 0 0 0 0 0 0 0 0 0 0 0 0 0 0 0 0 0 0 0 0 0 0 0 0 0 0 0 0 0 0 0 0 0 0 0 0 0 0 0 0 0
0 0 0 0 0 0 0 0 0 0 0 0 0 0 0 0 0 0 0 0 0 0 0 0 0 0 0 0 0 0 0 0 0 0 0 0 0 0 0 0 0 0 0
0 0 0 0 0 0 0 0 0 0 0 0 0 0 0 0 0 0 0 0 0 0 0 0 0 0 0 0 0 0 0 0 0 0 0 0 0 0 0 0 0 0 0
0 0 0 0 0 0 0 0 0 0 0 0 0 0 0 0 0 0 0 0 0 0 0 0 0 0 0 0 0 0 0 0 0 0 0 0 0 0 0 0 0 0 0
0 0 0 0 0 0 0 0 0 0 0 0 0 0 0 0 0 0 0 0 0 0 0 0 0 0 0 0 0 0 0 0 0 0 0 0 0 0 0 0 0 0 0
0 0 0 0 0 0 0 0 0 0 0 0 0 0 0 0 0 0 0 0 0 0 0 0 0 0 0 0 0 0 0 0 0 0 0 0 0 0 0 0 0 0 0
0 0 0 0 0 0 0 0 0 0 0 0 0 0 0 0 0 0 0 0 0 0 0 0 0 0 0 0 0 0 0 0 0 0 0 0 0 0 0 0 0 0 0
0 0 0 0 0 0 0 0 0 0 0 0 0 0 0 0 0 0 0 0 0 0 0 0 0 0 0 0 0 0 0 0 0 0 0 0 0 0 0 0 0 0 0
0 0 0 0 0 0 0 0 0 0 0 0 0 0 0 0 0 0 0 0 0 0 0 0 0 0 0 0 0 0 0 0 0 0 0 0 0 0 0 0 0 0 0
0 0 0 0 0 0 0 0 0 0 0 0 0 0 0 0 0 0 0 0 0 0 0 0 0 0 0 0 0 0 0 0 0 0 0 0 0 0 0 0 0 0 0
0 0 0 0 0 0 0 0 0 0 0 0 0 0 0 0 0 0 0 0 0 0 0 0 0 0 0 0 0 0 0 0 0 0 0 0 0 0 0 0 0 0 0
Wind_Speed
9 14 17 17 16 15 14 12 10 9 7 7 6 6 7 6 6 6 6 6 7 7 7 7 6 6 4 4 6 6 6 5 5 5 5 5 4 4 5 5 6 4 1
14 16 16 16 15 14 13 12 10 8 7 6 6 6 5 5 6 6 6 7 7 7 8 9 10 8 6 5 5 5 4 3 3 4 6 6 7 4 1 3 5 4 3
14 15 14 15 15 14 13 12 10 8 6 5 5 5 5 5 5 6 6 6 7 7 7 9 10 10 9 7 5 4 3 3 3 6 9 6 7 9 5 1 3 4 3
13 15 13 14 14 13 12 11 9 7 6 4 4 5 4 5 5 5 6 6 7 7 7 7 8 8 8 7 6 4 4 4 5 7 6 6 3 7 4 2 4 5 4
9 12 14 15 13 13 12 11 9 7 6 4 3 4 3 4 4 4 5 5 5 5 5 5 6 6 6 6 6 5 6 6 6 7 7 7 3 4 4 3 5 7 6
9 13 14 14 13 13 12 11 9 7 6 4 3 3 2 2 2 3 4 4 3 3 3 4 4 4 4 5 6 6 7 7 5 5 6 5 3 5 5 5 7 8 9
9 13 13 14 13 12 12 11 9 7 6 5 4 2 1 1 2 2 4 3 1 1 2 3 3 4 4 5 6 7 8 6 5 5 6 5 5 9 9 9 10 11 11
9 12 12 12 11 11 12 12 10 8 6 5 3 2 1 1 2 2 3 2 1 2 3 4 5 6 6 7 8 8 8 7 7 6 6 6 9 12 13 12 12 13 14
8 11 11 9 9 9 10 11 10 8 6 5 3 2 1 2 1 2 3 3 3 4 5 6 7 8 9 9 10 10 9 9 6 5 9 6 10 14 14 14 15 16 16
6 7 11 11 10 8 8 10 10 9 7 6 4 3 3 4 6 8 7 7 6 5 6 8 9 10 11 11 12 12 11 9 6 7 7 8 15 16 16 15 16 18 18
5 5 6 10 10 10 10 11 10 9 8 7 6 8 6 5 7 7 9 6 7 6 8 10 11 12 11 11 14 16 11 5 6 7 6 10 13 15 16 16 17 19 20
7 5 5 5 8 8 7 8 6 7 7 7 6 8 6 6 3 3 8 8 8 8 9 11 14 13 10 6 10 12 5 7 8 7 6 12 16 17 17 18 19 20 21
11 8 6 6 6 6 4 5 4 4 5 7 7 6 5 3 2 2 3 4 5 7 5 7 8 6 6 6 5 4 6 7 4 4 5 11 14 18 18 19 20 21 22
7 11 8 7 5 5 6 4 3 3 3 3 3 2 2 1 1 1 1 1 2 2 3 3 3 5 6 6 6 6 6 4 4 3 5 11 13 17 20 21 21 22 23
3 8 9 7 6 6 4 4 3 3 3 3 3 1 1 1 1 0 1 1 2 2 2 2 3 4 5 5 5 6 6 6 6 5 5 10 12 16 20 22 22 23 23
0 3 6 7 6 6 5 4 3 2 3 2 3 3 2 1 2 2 3 3 2 2 2 2 4 4 4 4 5 6 6 7 6 6 6 7 11 13 17 21 22 22 23
4 3 2 3 4 5 5 6 3 2 3 3 4 4 4 2 2 2 2 3 3 4 4 4 5 4 5 5 6 6 5 6 7 7 7 6 6 10 14 18 19 21 22
1 1 2 2 2 3 4 5 4 3 5 5 5 5 6 5 5 4 4 4 5 5 5 4 4 5 5 5 5 5 5 6 8 8 7 7 6 6 8 12 14 17 20
1 3 3 3 3 5 7 7 7 7 8 8 7 7 8 9 9 6 5 5 6 5 5 5 5 4 5 6 6 6 6 6 7 8 8 7 6 6 5 9 12 14 16
2 4 5 5 6 7 8 8 8 9 8 7 7 7 8 8 9 7 5 7 6 5 5 6 6 6 5 6 8 7 7 8 7 5 6 8 9 9 8 8 8 10 14
5 6 6 7 7 7 7 7 7 6 6 6 6 8 8 8 8 7 6 6 6 5 6 6 5 6 5 5 5 6 7 7 5 6 9 10 9 9 9 9 7 7 8
7 7 8 8 9 9 7 6 7 7 6 5 5 7 8 8 8 7 7 5 5 5 6 6 5 4 5 6 5 5 5 6 4 10 9 6 8 8 8 11 10 10 8
8 8 9 10 11 10 10 8 7 6 5 5 5 5 7 8 7 7 7 5 5 5 4 5 5 6 5 5 4 3 4 5 9 5 6 9 7 7 8 8 10 9 10
7 7 8 9 9 8 8 7 7 6 6 5 4 4 6 7 7 6 6 6 5 4 5 5 5 4 5 5 5 3 4 7 6 7 5 5 9 10 9 10 9 10 11
7 7 8 9 9 9 9 9 8 7 5 4 4 5 5 5 6 6 6 5 5 4 5 5 5 5 3 4 4 5 6 5 6 9 12 7 6 6 7 8 9 9 10
7 7 8 9 9 9 9 9 8 8 7 7 6 5 4 4 4 6 5 5 5 4 4 4 4 5 4 5 4 4 5 5 6 8 13 14 10 6 7 6 8 8 9
Wind_Direction
121 134 148 148 147 144 139 133 127 118 106 99 95 90 74 65 67 59 44 36 30 23 16 15 13 16 36 73 89 79 65 56 43 19 356 334 320 350 16 17 349 321 138
124 136 148 150 151 147 142 137 131 123 113 106 102 93 80 69 69 58 46 38 34 26 21 20 20 19 29 56 76 75 66 55 30 354 325 298 262 236 244 358 347 359 25
122 134 148 152 153 150 145 141 135 127 118 110 106 100 90 78 72 62 49 39 33 27 19 14 14 19 30 46 54 55 43 20 346 330 312 285 244 218 202 243 309 322 345
125 138 149 150 155 152 149 144 138 131 121 116 113 111 99 91 80 69 58 45 35 30 23 13 10 14 24 31 32 20 3 349 335 318 303 291 297 180 192 247 277 281 289
121 134 140 149 155 154 151 146 141 132 124 123 120 112 109 106 100 83 73 58 44 33 19 11 7 6 7 6 359 346 335 337 335 302 281 285 296 221 227 254 274 277 275
128 123 139 148 155 156 154 151 145 137 132 132 127 110 110 134 120 102 96 85 58 35 16 3 355 351 344 332 322 315 312 321 322 290 291 291 286 269 264 257 263 270 268
125 125 141 147 155 159 159 155 150 144 139 139 142 142 126 156 137 114 128 124 87 11 345 330 320 312 306 300 295 293 293 301 279 268 275 280 283 274 268 264 260 264 267
118 126 137 147 154 161 163 160 159 155 151 151 158 171 155 82 95 113 154 162 212 297 310 310 306 294 288 281 280 280 279 278 282 287 280 266 260 262 262 263 262 261 265
126 132 144 152 156 163 166 167 168 163 161 165 177 170 95 100 143 178 191 211 241 274 289 294 295 292 289 287 285 281 272 263 261 263 270 264 255 256 258 258 259 260 261
142 151 154 161 167 170 173 177 173 171 172 179 191 185 175 206 227 227 218 215 225 251 277 284 285 287 288 289 285 277 266 261 251 252 250 250 251 252 255 257 259 261 261
162 169 165 163 171 174 177 177 174 176 186 190 203 212 209 227 231 220 218 200 208 242 267 275 278 279 280 279 274 264 259 245 246 250 244 246 249 252 255 256 258 260 261
180 188 183 175 164 169 169 158 177 184 187 199 213 197 206 223 223 118 160 196 222 247 262 267 267 271 273 262 262 257 237 237 242 246 241 239 247 254 258 260 260 261 262
180 183 185 187 168 164 148 159 175 182 177 196 215 183 190 197 153 166 180 203 226 237 243 256 253 245 239 242 249 235 226 237 240 248 255 255 250 257 261 262 264 264 264
170 173 180 183 174 173 156 168 175 172 168 175 176 172 161 137 124 251 218 225 228 232 225 243 252 260 259 262 266 263 258 258 255 255 257 265 252 256 264 266 267 267 267
189 162 170 177 178 172 163 157 174 176 159 162 137 132 100 99 214 357 327 298 282 288 289 281 284 295 303 305 301 306 310 302 290 279 272 270 260 253 265 271 272 271 272
127 152 156 168 181 170 157 153 174 167 125 108 119 118 86 51 41 26 348 346 335 324 315 316 315 314 308 309 313 311 302 300 298 303 299 294 288 272 269 277 279 279 279
6 18 107 151 167 168 163 157 152 146 122 101 89 79 70 53 53 33 11 6 352 353 358 1 353 346 337 333 321 317 317 313 306 300 293 287 283 279 271 275 281 284 284
359 3 78 108 144 152 132 120 110 89 84 77 68 63 55 45 52 50 38 20 10 19 17 7 6 355 342 332 321 316 310 300 292 288 290 288 284 281 281 280 280 285 286
153 136 121 131 140 116 101 89 83 73 66 63 57 53 51 45 45 50 43 26 13 22 17 6 6 356 337 331 325 318 316 305 297 300 299 305 314 320 321 316 311 299 293
71 103 113 110 107 99 93 85 77 71 67 63 60 56 53 49 42 37 43 31 16 21 17 11 4 353 341 341 331 323 308 298 295 314 338 344 334 330 333 332 329 324 323
75 81 96 104 101 97 98 97 92 85 76 66 61 59 55 50 46 42 31 31 20 19 23 11 4 349 342 338 330 319 296 301 318 357 344 331 324 331 335 331 326 324 320
84 79 81 85 87 87 90 91 95 95 88 81 67 58 58 52 44 45 34 28 19 19 20 7 8 354 340 344 337 328 326 317 353 343 304 309 323 319 320 323 319 313 311
76 78 86 86 89 93 96 99 102 97 93 84 77 68 60 56 45 40 37 28 19 24 16 2 13 1 337 332 351 342 332 311 316 277 334 315 308 327 319 310 306 311 316
84 82 89 95 99 103 107 107 106 102 99 98 101 96 84 69 53 34 34 28 22 25 18 359 5 346 345 333 333 338 305 300 305 304 301 306 317 309 309 313 317 317 315
90 84 82 82 80 80 80 84 92 94 97 88 79 73 81 75 61 33 27 22 24 22 6 353 353 345 340 331 323 313 306 299 291 302 301 296 291 292 301 311 312 308 304
93 87 85 84 80 77 78 78 84 87 81 74 66 58 58 65 55 32 21 16 19 9 349 341 348 334 317 306 300 296 295 297 304 300 300 303 299 292 295 295 296 296 300